Three Rivers, MI

11:49 PM EST on February 12, 2016 (GMT -0500)
Three Rivers Municipal-Haines

Weather History for KHAI - December, 2012

Change the Weather History Date:

Monday, December 31, 2012

  Actual Average Record
Temperature  
Mean Temperature 28 °F -  
Max Temperature 34 °F 32 °F 60 °F (1965)
Min Temperature 23 °F 18 °F -15 °F (1976)
Degree Days  
Heating Degree Days 36    
Moisture  
Dew Point 23 °F    
Average Humidity 74    
Maximum Humidity 82    
Minimum Humidity 66    
Precipitation  
Precipitation 0.00 in - - ()
Sea Level Pressure  
Sea Level Pressure 30.02 in    
Wind  
Wind Speed 11 mph (WSW)    
Max Wind Speed 16 mph    
Max Gust Speed 22 mph    
Visibility 10 miles    
Events      
Averages and records for this station are not official NWS values.
T = Trace of Precipitation, MM = Missing Value Source: NWS Daily Summary

Daily Weather History Graph

Daily Weather History Graph

Search for Another Location

Airport or City:

Trip Planner

Search our weather history database for the weather conditions in past years. The results will help you decide how hot, cold, wet, or windy it might be!

Date:

Astronomy

Dec. 31, 2012 Rise Set
Actual Time 8:10 AM EST 5:21 PM EST
Civil Twilight 7:38 AM EST 5:52 PM EST
Nautical Twilight 7:03 AM EST 6:27 PM EST
Astronomical Twilight 6:29 AM EST 7:01 PM EST
Moon 8:54 PM EST (12/31) 9:48 AM EST (12/31)
Length of Visible Light 10h 14m
Length of Day
9h 10m
Waning Gibbous, 90% of the Moon is Illuminated
Dec 31
Waning Gibbous
Jan 4
Last Quarter
Jan 11
New
Jan 18
First Quarter
Jan 26
Full

Hourly Weather History & Observations

Time (EST) Temp. Windchill Dew Point Humidity Pressure Visibility Wind Dir Wind Speed Gust Speed Precip Events Conditions
12:15 AM 23.7 °F 14.0 °F 18.3 °F 80% 30.15 in 10.0 mi SSW 9.2 mph - N/A   Clear
12:35 AM 24.4 °F 14.9 °F 18.5 °F 78% 30.14 in 10.0 mi SSW 9.2 mph - N/A   Clear
12:55 AM 24.8 °F 14.0 °F 18.9 °F 78% 30.14 in 10.0 mi SSW 11.5 mph - N/A   Clear
1:15 AM 24.8 °F 14.0 °F 18.5 °F 77% 30.13 in 10.0 mi SSW 11.5 mph - N/A   Clear
1:35 AM 24.8 °F 13.4 °F 18.7 °F 78% 30.11 in 10.0 mi SSW 12.7 mph 17.3 mph N/A   Clear
1:54 AM 24.8 °F 12.9 °F 18.7 °F 78% 30.10 in 10.0 mi SSW 13.8 mph - N/A   Clear
2:15 AM 25.3 °F 14.7 °F 19.0 °F 77% 30.10 in 10.0 mi SSW 11.5 mph 18.4 mph N/A   Clear
2:35 AM 25.5 °F 13.8 °F 19.0 °F 76% 30.09 in 10.0 mi SSW 13.8 mph 18.4 mph N/A   Clear
2:55 AM 25.7 °F 14.0 °F 19.4 °F 77% 30.09 in 10.0 mi SSW 13.8 mph - N/A   Clear
3:15 AM 26.1 °F 13.6 °F 19.4 °F 76% 30.08 in 10.0 mi SSW 16.1 mph - N/A   Clear
3:35 AM 26.6 °F 15.7 °F 19.8 °F 75% 30.07 in 10.0 mi SSW 12.7 mph 21.9 mph N/A   Clear
3:55 AM 26.6 °F 15.2 °F 19.4 °F 74% 30.07 in 10.0 mi SSW 13.8 mph 21.9 mph N/A   Clear
4:14 AM 26.4 °F 14.5 °F 19.4 °F 75% 30.06 in 10.0 mi SSW 15.0 mph - N/A   Clear
4:35 AM 26.6 °F 16.2 °F 19.4 °F 74% 30.05 in 10.0 mi SW 11.5 mph - N/A   Clear
4:55 AM 26.4 °F 15.0 °F 19.4 °F 75% 30.04 in 10.0 mi SSW 13.8 mph - N/A   Clear
5:14 AM 26.1 °F 14.5 °F 19.4 °F 76% 30.05 in 10.0 mi SW 13.8 mph 19.6 mph N/A   Clear
5:35 AM 26.1 °F 16.2 °F 19.2 °F 75% 30.05 in 10.0 mi SSW 10.4 mph - N/A   Clear
5:55 AM 26.2 °F 17.1 °F 19.4 °F 75% 30.04 in 10.0 mi SSW 9.2 mph - N/A   Clear
6:14 AM 26.6 °F 16.2 °F 19.9 °F 76% 30.04 in 10.0 mi SSW 11.5 mph - N/A   Clear
6:35 AM 27.1 °F 16.9 °F 20.3 °F 75% 30.04 in 10.0 mi SSW 11.5 mph - N/A   Clear
6:55 AM 27.3 °F 17.1 °F 20.5 °F 75% 30.03 in 10.0 mi SSW 11.5 mph - N/A   Clear
7:14 AM 27.3 °F 17.7 °F 20.5 °F 75% 30.02 in 10.0 mi SSW 10.4 mph - N/A   Clear
7:55 AM 26.6 °F 17.5 °F 20.3 °F 77% 30.02 in 10.0 mi SSW 9.2 mph - N/A   Scattered Clouds
8:15 AM 26.8 °F 17.1 °F 20.8 °F 78% 30.01 in 10.0 mi SSW 10.4 mph - N/A   Scattered Clouds
8:35 AM 28.2 °F 18.3 °F 21.4 °F 76% 30.01 in 10.0 mi SW 11.5 mph - N/A   Clear
8:55 AM 29.7 °F 20.7 °F 21.9 °F 73% 30.01 in 10.0 mi SW 10.4 mph - N/A   Clear
9:15 AM 30.0 °F 21.1 °F 22.1 °F 72% 30.01 in 10.0 mi SW 10.4 mph - N/A   Clear
9:35 AM 30.2 °F 20.2 °F 22.3 °F 72% 30.01 in 10.0 mi SW 12.7 mph 16.1 mph N/A   Mostly Cloudy
9:54 AM 31.1 °F 23.1 °F 22.6 °F 71% 30.02 in 10.0 mi SW 9.2 mph 17.3 mph N/A   Mostly Cloudy
10:15 AM 31.6 °F 21.2 °F 22.8 °F 70% 30.02 in 10.0 mi SW 15.0 mph 19.6 mph N/A   Clear
10:35 AM 32.0 °F 24.2 °F 23.0 °F 69% 30.01 in 10.0 mi WSW 9.2 mph 18.4 mph N/A   Scattered Clouds
10:54 AM 32.0 °F 23.6 °F 23.0 °F 69% 30.01 in 10.0 mi SW 10.4 mph 16.1 mph N/A   Clear
11:15 AM 32.5 °F 24.8 °F 23.5 °F 69% 30.01 in 10.0 mi WSW 9.2 mph - N/A   Clear
11:35 AM 33.8 °F 25.8 °F 23.7 °F 67% 30.01 in 10.0 mi WSW 10.4 mph - N/A   Clear
11:54 AM 34.0 °F 27.2 °F 23.9 °F 67% 29.99 in 10.0 mi WSW 8.1 mph - N/A   Clear
12:15 PM 34.3 °F 25.9 °F 24.3 °F 67% 29.98 in 10.0 mi WSW 11.5 mph 18.4 mph N/A   Scattered Clouds
12:35 PM 34.3 °F 25.5 °F 24.4 °F 67% 29.97 in 10.0 mi WSW 12.7 mph 17.3 mph N/A   Mostly Cloudy
12:54 PM 34.7 °F 25.1 °F 24.4 °F 66% 29.97 in 10.0 mi WSW 15.0 mph 19.6 mph N/A   Overcast
1:15 PM 34.2 °F 26.2 °F 24.6 °F 68% 29.96 in 10.0 mi WSW 10.4 mph 16.1 mph N/A   Overcast
1:35 PM 34.5 °F 25.7 °F 25.0 °F 68% 29.96 in 10.0 mi WSW 12.7 mph 17.3 mph N/A   Overcast
1:55 PM 34.7 °F 25.1 °F 25.0 °F 68% 29.95 in 10.0 mi WSW 15.0 mph - N/A   Overcast
2:15 PM 34.7 °F 26.9 °F 25.2 °F 68% 29.96 in 10.0 mi WSW 10.4 mph 16.1 mph N/A   Overcast
2:34 PM 34.7 °F 26.9 °F 25.2 °F 68% 29.96 in 10.0 mi WSW 10.4 mph 17.3 mph N/A   Overcast
2:55 PM 34.7 °F 28.1 °F 25.2 °F 68% 29.97 in 10.0 mi WSW 8.1 mph - N/A   Overcast
3:15 PM 34.7 °F 26.9 °F 25.5 °F 69% 29.97 in 10.0 mi WSW 10.4 mph - N/A   Overcast
3:34 PM 34.7 °F 27.5 °F 25.3 °F 69% 29.97 in 10.0 mi West 9.2 mph - N/A   Overcast
3:55 PM 34.7 °F 26.4 °F 25.7 °F 70% 29.96 in 10.0 mi West 11.5 mph 16.1 mph N/A   Overcast
4:15 PM 34.5 °F 27.3 °F 25.9 °F 71% 29.96 in 10.0 mi West 9.2 mph - N/A   Overcast
4:34 PM 34.2 °F 26.2 °F 26.2 °F 73% 29.96 in 10.0 mi West 10.4 mph - N/A   Overcast
4:55 PM 33.8 °F 25.3 °F 27.0 °F 76% 29.97 in 10.0 mi West 11.5 mph - N/A   Overcast
5:15 PM 33.3 °F 24.6 °F 27.0 °F 78% 29.97 in 10.0 mi West 11.5 mph - N/A   Overcast
5:34 PM 33.1 °F 23.0 °F 26.8 °F 78% 29.99 in 10.0 mi West 15.0 mph 19.6 mph N/A   Overcast
5:55 PM 32.9 °F 24.1 °F 26.6 °F 78% 29.98 in 10.0 mi WNW 11.5 mph - N/A   Overcast
6:15 PM 32.5 °F 23.7 °F 26.6 °F 79% 29.99 in 10.0 mi WNW 11.5 mph - N/A   Overcast
6:35 PM 32.0 °F 23.6 °F 26.4 °F 80% 29.99 in 10.0 mi West 10.4 mph - N/A   Overcast
6:55 PM 32.0 °F 24.2 °F 26.2 °F 79% 30.00 in 10.0 mi West 9.2 mph - N/A   Overcast
6:59 PM 32.0 °F 23.6 °F 26.2 °F 79% 29.99 in 10.0 mi WNW 10.4 mph - N/A   Overcast
7:35 PM 32.0 °F 24.8 °F 26.1 °F 79% 30.00 in 10.0 mi WNW 8.1 mph - N/A   Overcast
8:14 PM 31.6 °F 23.7 °F 26.2 °F 80% 30.02 in 10.0 mi NW 9.2 mph - N/A   Overcast
8:35 PM 31.1 °F 24.5 °F 26.1 °F 82% 30.02 in 7.0 mi NW 6.9 mph - N/A   Overcast
8:55 PM 30.7 °F 24.9 °F 25.3 °F 80% 30.03 in 7.0 mi NW 5.8 mph - N/A   Overcast
9:14 PM 30.2 °F 22.6 °F 24.8 °F 80% 30.02 in 10.0 mi NNW 8.1 mph - N/A   Overcast
9:35 PM 29.8 °F 21.5 °F 23.5 °F 77% 30.02 in 10.0 mi NW 9.2 mph - N/A   Overcast
10:15 PM 29.3 °F 24.3 °F 23.0 °F 77% 30.02 in 10.0 mi NNW 4.6 mph - N/A   Overcast
10:35 PM 29.1 °F 23.0 °F 22.5 °F 76% 30.03 in 10.0 mi NNW 5.8 mph - N/A   Overcast
10:55 PM 28.4 °F 20.4 °F 21.2 °F 74% 30.03 in 10.0 mi NNW 8.1 mph - N/A   Overcast
11:15 PM 28.2 °F 21.0 °F 20.7 °F 73% 30.04 in 10.0 mi NNW 6.9 mph - N/A   Overcast
11:35 PM 28.0 °F 21.7 °F 20.3 °F 73% 30.04 in 10.0 mi NNW 5.8 mph - N/A   Overcast
11:55 PM 28.0 °F 22.8 °F 19.8 °F 71% 30.05 in 10.0 mi NW 4.6 mph - N/A   Overcast